TELKOM 4 (MERAH PUTIH) (43587 NORAD) Tracking and Keplerian Element Data

This shows tracking and keplerian element data for the satellite.

Feedback or suggestion? Click here.




ElementValue
Catalog43587
NameTELKOM 4 (MERAH PUTIH)
Epoch Orbit2708
Epoch Day354.00205372
Epoch Year2025
RAAN342.703
Inclination0.0156
Eccentricity9.31E-05
Argument of Perigee279.7585
Mean Anonmoly295.1365
Mean Motion1.00271569
Decay Rate-3.2E-06
L11 43587U 18064A 25354.00205372 -.00000320 00000+0 00000+0 0 9998
L22 43587 0.0156 342.7030 0000931 279.7585 295.1365 1.00271569 27085



Live tracking and technical data element details for TELKOM 4 (MERAH PUTIH) (NORAD 43587). TELKOM 4 (MERAH PUTIH) can be tracked NOW for your location showing map with azimuth and elevation plus other details from your city location.







IsCatalogInMostPopularTable: catalog: 43587, numindb: 602
Update: records affected: 1



GetName: 43587 TELKOM 4 (MERAH PUTIH)

Hit Count: updated at: Thu, 21 May 2026 09:59:49 GMT